This is the latest recevied weather packets stored in our database for station/object W9KHP-1. If no packets are shown the sender has not sent any weather packets the latest 10 day(s).
| Time | Temp. | Humidity | Pressure | Rain* | Wind** | Luminosity | Snow |
|---|---|---|---|---|---|---|---|
| 1777436189 | 16.67° C | 99% | 1014 hPa | 0 mm | - | 0 W/m² | - |
| 1777435887 | 16.67° C | 99% | 1014.2 hPa | 0 mm | - | 0 W/m² | - |
| 1777435582 | 16.67° C | 99% | 1014.4 hPa | 0 mm | - | 0 W/m² | - |
| 1777435278 | 16.67° C | 99% | 1014.6 hPa | 0 mm | - | 0 W/m² | - |
| 1777434977 | 16.67° C | 99% | 1014.3 hPa | 0 mm | - | 0 W/m² | - |
| 1777434672 | 16.67° C | 99% | 1014.5 hPa | 0 mm | - | 0 W/m² | - |
| 1777434367 | 16.67° C | 99% | 1014.7 hPa | 1.27 mm | - | 0 W/m² | - |
| 1777434066 | 16.67° C | 99% | 1014.4 hPa | 1.27 mm | - | 0 W/m² | - |
| 1777433762 | 16.67° C | 99% | 1014.9 hPa | 0 mm | - | 0 W/m² | - |
| 1777433458 | 17.22° C | 99% | 1015.5 hPa | 1.78 mm | - | 0 W/m² | - |
| 1777433153 | 17.22° C | 99% | 1016 hPa | 1.78 mm | - | 0 W/m² | - |
| 1777432850 | 17.22° C | 99% | 1016.3 hPa | 1.27 mm | - | 0 W/m² | - |
| 1777432545 | 16.67° C | 99% | 1016.3 hPa | 1.27 mm | - | 0 W/m² | - |
| 1777432242 | 16.67° C | 99% | 1016.3 hPa | 0 mm | - | 0 W/m² | - |
| 1777431940 | 17.22° C | 99% | 1016.3 hPa | 1.78 mm | - | 0 W/m² | - |
| 1777431638 | 17.22° C | 99% | 1016.3 hPa | 1.78 mm | - | 0 W/m² | - |
| 1777431333 | 17.22° C | 99% | 1016 hPa | 0 mm | - | 0 W/m² | - |
| 1777431029 | 17.22° C | 99% | 1015.7 hPa | 0 mm | - | 0 W/m² | - |
| 1777430726 | 17.22° C | 99% | 1015.6 hPa | 0 mm | - | 0 W/m² | - |
| 1777430421 | 17.22° C | 99% | 1015.2 hPa | 0 mm | - | 0 W/m² | - |
| 1777430117 | 17.22° C | 99% | 1014.9 hPa | 0 mm | - | 0 W/m² | - |
| 1777429813 | 17.22° C | 99% | 1014.3 hPa | 0 mm | - | 0 W/m² | - |
| 1777429509 | 17.22° C | 99% | 1014.2 hPa | 0 mm | - | 0 W/m² | - |
| 1777429205 | 17.22° C | 99% | 1014.2 hPa | 0 mm | - | 0 W/m² | - |
| 1777428901 | 17.22° C | 99% | 1014.3 hPa | 0 mm | - | 0 W/m² | - |
* Rain latest hour (hover to see other rain measurements)
** Current wind speed in m/s (hover to see current wind gust speed)